Meteo pe oră la Bolshie Kopeny

Astăzi, 6 Mai, Joi

Timp Temperatura Precipitaţii Vânt Presiune Umiditate
00:00 +7°C° 0 mm 2 m/s 752 mmHg 72%
01:00 +7°C° 0 mm 2 m/s 752 mmHg 74%
02:00 +8°C° 0 mm 1 m/s 752 mmHg 76%
03:00 +7°C° 0 mm 1 m/s 752 mmHg 78%
04:00 +8°C° 0 mm 1 m/s 753 mmHg 76%
05:00 +8°C° 0 mm 1 m/s 753 mmHg 74%
06:00 +9°C° 0 mm 1 m/s 753 mmHg 72%
07:00 +10°C° 0 mm 2 m/s 753 mmHg 65%
08:00 +13°C° 0 mm 2 m/s 753 mmHg 59%
09:00 +14°C° 0 mm 3 m/s 753 mmHg 52%
10:00 +16°C° 0 mm 3 m/s 753 mmHg 48%
11:00 +17°C° 0 mm 3 m/s 752 mmHg 45%
12:00 +18°C° 0 mm 3 m/s 752 mmHg 42%
13:00 +18°C° 0 mm 3 m/s 752 mmHg 41%
14:00 +18°C° 0 mm 3 m/s 752 mmHg 40%
15:00 +19°C° 0 mm 4 m/s 752 mmHg 39%
16:00 +18°C° 0 mm 3 m/s 752 mmHg 43%
17:00 +18°C° 0 mm 3 m/s 752 mmHg 47%
18:00 +17°C° 0 mm 2 m/s 751 mmHg 51%
19:00 +16°C° 0 mm 3 m/s 752 mmHg 54%
20:00 +14°C° 0 mm 3 m/s 752 mmHg 57%
21:00 +12°C° 0 mm 3 m/s 752 mmHg 60%
22:00 +12°C° 0 mm 3 m/s 752 mmHg 61%
23:00 +11°C° 0 mm 3 m/s 752 mmHg 63%

Mâine, 7 Mai, Vineri

Timp Temperatura Precipitaţii Vânt Presiune Umiditate
00:00 +11°C° 0 mm 3 m/s 752 mmHg 64%
01:00 +11°C° 0 mm 3 m/s 752 mmHg 65%
02:00 +11°C° 0 mm 3 m/s 752 mmHg 66%
03:00 +10°C° 0 mm 3 m/s 752 mmHg 67%
04:00 +11°C° 0 mm 3 m/s 752 mmHg 68%
05:00 +11°C° 0 mm 3 m/s 753 mmHg 68%
06:00 +11°C° 0 mm 3 m/s 753 mmHg 69%
07:00 +13°C° 0 mm 4 m/s 753 mmHg 64%
08:00 +14°C° 0 mm 5 m/s 753 mmHg 59%
09:00 +16°C° 0 mm 6 m/s 753 mmHg 53%
10:00 +17°C° 0 mm 6 m/s 753 mmHg 50%
11:00 +19°C° 0 mm 6 m/s 753 mmHg 46%
12:00 +20°C° 0 mm 7 m/s 753 mmHg 43%
13:00 +20°C° 0 mm 6 m/s 753 mmHg 45%
14:00 +20°C° 0 mm 5 m/s 753 mmHg 47%
15:00 +19°C° 0 mm 5 m/s 753 mmHg 49%
16:00 +19°C° 0 mm 5 m/s 753 mmHg 51%
17:00 +19°C° 0 mm 5 m/s 753 mmHg 52%
18:00 +18°C° 0 mm 4 m/s 753 mmHg 54%
19:00 +17°C° 0 mm 4 m/s 753 mmHg 57%
20:00 +15°C° 0 mm 4 m/s 753 mmHg 60%
21:00 +14°C° 0 mm 3 m/s 753 mmHg 63%
22:00 +13°C° 0 mm 3 m/s 753 mmHg 64%
23:00 +12°C° 0 mm 4 m/s 753 mmHg 65%

Poimâine, 8 Mai, Sâmbătă

Timp Temperatura Precipitaţii Vânt Presiune Umiditate
00:00 +12°C° 0 mm 4 m/s 753 mmHg 65%
01:00 +12°C° 0 mm 4 m/s 753 mmHg 65%
02:00 +11°C° 0 mm 4 m/s 753 mmHg 64%
03:00 +11°C° 0 mm 4 m/s 753 mmHg 63%
04:00 +12°C° 0 mm 4 m/s 753 mmHg 64%
05:00 +12°C° 0 mm 5 m/s 753 mmHg 64%
06:00 +12°C° 0 mm 5 m/s 753 mmHg 65%
07:00 +14°C° 0 mm 6 m/s 752 mmHg 62%
08:00 +15°C° 0 mm 7 m/s 752 mmHg 59%
09:00 +17°C° 0 mm 8 m/s 752 mmHg 56%
10:00 +18°C° 0 mm 8 m/s 752 mmHg 54%
11:00 +19°C° 0 mm 9 m/s 751 mmHg 53%
12:00 +21°C° 0 mm 9 m/s 751 mmHg 51%
13:00 +22°C° 0 mm 9 m/s 751 mmHg 50%
14:00 +22°C° 0 mm 8 m/s 751 mmHg 49%
15:00 +22°C° 0 mm 8 m/s 751 mmHg 47%
16:00 +20°C° 0.1 mm 6 m/s 751 mmHg 60%
17:00 +18°C° 0.1 mm 4 m/s 751 mmHg 73%
18:00 +16°C° 0.1 mm 2 m/s 752 mmHg 85%
19:00 +15°C° 0.2 mm 2 m/s 752 mmHg 87%
20:00 +15°C° 0.2 mm 2 m/s 753 mmHg 90%
21:00 +14°C° 0.2 mm 2 m/s 753 mmHg 92%
22:00 +13°C° 0 mm 2 m/s 753 mmHg 92%
23:00 +13°C° 0 mm 2 m/s 754 mmHg 92%

9 Mai, Duminică

Timp Temperatura Precipitaţii Vânt Presiune Umiditate
00:00 +12°C° 0 mm 2 m/s 754 mmHg 91%
01:00 +10°C° 0 mm 2 m/s 754 mmHg 91%
02:00 +10°C° 0 mm 2 m/s 755 mmHg 90%
03:00 +10°C° 0 mm 2 m/s 755 mmHg 90%

10 Mai, Luni

Timp Temperatura Precipitaţii Vânt Presiune Umiditate

11 Mai, Marţi

Timp Temperatura Precipitaţii Vânt Presiune Umiditate
Arată mai mult

Formular de consimțământ

Meteoprog și furnizorii noștri de servicii pot stoca și accesa date personale, precum cookies, identificatori de dispozitiv sau alte tehnologii similare pe dispozitivul dumneavoastră și procesa astfel de date pentru a personaliza conținutul și reclamele, dar și pentru a oferi caracteristici de social media și pentru a analiza traficul.

  • Stocarea și/sau accesarea informațiilor pe dispozitivul dumneavoastră

    Cookies, identificatori de dispozitiv sau alte informații pot fi stocate sau accesate pe dispozitiv în scopurile indicate mai sus.

  • Reclame și conținut personalizat, evaluarea reclamelor și a conținutului, informații despre audiențe și dezvoltarea produselor

    Reclamele și conținutul pot fi personalizate pe baza unui profil. Pot fi adăugate date suplimentare pentru a personaliza mai bine reclamele și conținutul. Performanța reclamelor și conținutului poate fi măsurată. Pot fi obținute informații despre utilizatorii care au văzut reclamele și conținutul. Aceste date pot fi utilizate pentru a dezvolta sau îmbunătăți experiența utilizatorilor, sistemele și software-ul.

Dând clic pe ‘Sunt de acord’, permiteți utilizarea cookie-urilor menționate, a identificatorilor de dispozitiv, balizelor web sau altor tehnologii similare. Setările pot fi modificate din browser-ul dispozitivului dumneavoastră.

În anumite scopuri, interesele legitime pot prima asupra consimțământului. Puteți citi mai multe informații în acest sens în Politica privind Confidențialitatea Datelor și Cookie.